St. Cloud, MN

4:10 PM CST on December 05, 2019 (GMT -0600)
Saint Cloud Regional

Weather History for KSTC - November, 2019

Change the Weather History Date:

Monday, November 11, 2019

  Actual Average Record
Temperature  
Mean Temperature 9 °F 33 °F  
Max Temperature 16 °F 42 °F 65 °F (1909)
Min Temperature 1 °F 24 °F -4 °F (1986)
Degree Days  
Heating Degree Days 56 32  
Month to date heating degree days 438 319  
Since 1 July heating degree days 1289 1204  
Cooling Degree Days 0 0  
Month to date cooling degree days 0 0  
Year to date cooling degree days 452 465  
Moisture  
Dew Point -2 °F    
Average Humidity 62    
Maximum Humidity 80    
Minimum Humidity 47    
Precipitation  
Precipitation T in 0.05 in 1.22 in (1940)
Month to date precipitation 0.08 0.55  
Year to date precipitation 38.81 26.08  
Sea Level Pressure  
Sea Level Pressure 30.64 in    
Wind  
Wind Speed 10 mph ()    
Max Wind Speed 23 mph    
Max Gust Speed 33 mph    
Visibility 9.9 miles    
Events      
T = Trace of Precipitation, MM = Missing Value Source: Averaged Metar Reports

Daily Weather History Graph

Daily Weather History Graph

Search for Another Location

Airport or City:

Astronomy

Nov. 11, 2019 Rise Set
Actual Time 7:09 AM CST 4:50 PM CST
Civil Twilight 6:37 AM CST 5:22 PM CST
Nautical Twilight 6:02 AM CST 5:57 PM CST
Astronomical Twilight 5:27 AM CST 6:32 PM CST
Moon 4:50 PM CST (11/11) 5:55 AM CST (11/11)
Length of Visible Light 10h 44m
Length of Day
9h 40m
Waxing Gibbous, 99% of the Moon is Illuminated
Nov 11
Waxing Gibbous
Nov 12
Full
Nov 19
Last Quarter
Nov 26
New
Dec 4
First Quarter

Hourly Weather History & Observations

Time (CST) Temp. Windchill Dew Point Humidity Pressure Visibility Wind Dir Wind Speed Gust Speed Precip Events Conditions
12:53 AM 15.1 °F 2.5 °F 3.9 °F 61% 30.53 in 10.0 mi NNW 10.4 mph - N/A   Overcast
1:53 AM 14.0 °F 0.5 °F 3.0 °F 62% 30.56 in 10.0 mi NNW 11.5 mph 20.7 mph N/A   Overcast
2:53 AM 12.9 °F 0.7 °F 3.0 °F 65% 30.57 in 10.0 mi NNW 9.2 mph - N/A   Overcast
3:53 AM 10.0 °F -2.9 °F 1.0 °F 67% 30.59 in 10.0 mi NNW 9.2 mph - N/A   Clear
4:53 AM 9.0 °F -4.2 °F 1.0 °F 70% 30.61 in 10.0 mi NW 9.2 mph - N/A   Clear
5:53 AM 9.0 °F -6.6 °F -0.9 °F 64% 30.62 in 10.0 mi NW 12.7 mph - N/A   Clear
6:53 AM 7.0 °F -7.5 °F -2.0 °F 67% 30.64 in 10.0 mi NW 10.4 mph - N/A   Clear
7:53 AM 8.1 °F -7.7 °F -2.0 °F 64% 30.66 in 10.0 mi NW 12.7 mph - N/A   Clear
8:53 AM 9.0 °F -8.5 °F -2.0 °F 61% 30.67 in 10.0 mi NW 16.1 mph 24.2 mph N/A   Clear
9:53 AM 10.0 °F -5.9 °F -5.1 °F 51% 30.67 in 10.0 mi NNW 13.8 mph 25.3 mph N/A   Clear
10:53 AM 10.9 °F -5.9 °F -5.1 °F 49% 30.67 in 10.0 mi NW 16.1 mph 27.6 mph N/A   Clear
11:53 AM 12.9 °F -5.3 °F -4.0 °F 47% 30.65 in 10.0 mi NW 20.7 mph 25.3 mph N/A   Partly Cloudy
12:53 PM 12.0 °F -5.1 °F -4.0 °F 49% 30.63 in 10.0 mi NW 17.3 mph 27.6 mph N/A   Mostly Cloudy
1:53 PM 12.9 °F -2.2 °F -2.0 °F 51% 30.63 in 10.0 mi NNW 13.8 mph 28.8 mph N/A   Mostly Cloudy
2:53 PM 12.9 °F -4.9 °F -2.0 °F 51% 30.64 in 10.0 mi NW 19.6 mph 26.5 mph N/A   Overcast
3:53 PM 10.0 °F -5.9 °F -2.9 °F 56% 30.65 in 9.0 mi NNW 13.8 mph 23.0 mph 0.00 in   Mostly Cloudy
4:53 PM 9.0 °F -4.2 °F -2.0 °F 61% 30.67 in 9.0 mi NNW 9.2 mph - 0.00 in   Scattered Clouds
5:00 PM 9.0 °F -4.2 °F -2.0 °F 61% 30.57 in 10.0 mi NNW 9.2 mph - N/A   Mostly Cloudy
5:12 PM 8.1 °F -3.2 °F -2.9 °F 61% 30.57 in 10.0 mi NNW 6.9 mph - N/A   Scattered Clouds
5:53 PM 8.1 °F -2.0 °F -4.0 °F 58% 30.68 in 10.0 mi NW 5.8 mph - N/A   Clear
6:53 PM 6.1 °F -7.8 °F -2.0 °F 69% 30.70 in 10.0 mi NW 9.2 mph - N/A   Clear
7:53 PM 3.9 °F -8.2 °F -2.9 °F 73% 30.70 in 10.0 mi NW 6.9 mph - N/A   Clear
8:53 PM 6.1 °F -4.3 °F -2.9 °F 67% 30.70 in 10.0 mi NW 5.8 mph - N/A   Clear
9:53 PM 3.9 °F -9.4 °F -2.9 °F 73% 30.71 in 10.0 mi NW 8.1 mph - N/A   Clear
10:53 PM 3.9 °F -9.4 °F -2.0 °F 76% 30.70 in 10.0 mi NW 8.1 mph - N/A   Clear
11:53 PM 1.9 °F -11.8 °F -2.9 °F 80% 30.69 in 10.0 mi NW 8.1 mph - N/A   Clear